Time,TemperatureF,DewpointF,PressureIn,WindDirection,WindDirectionDegrees,WindSpeedMPH,WindSpeedGustMPH,Humidity,HourlyPrecipIn,Conditions,Clouds,dailyrainin,SoftwareType,DateUTC
2013-02-05 00:00:00,45.0,42.6,29.67,SE,135,0.4,0.4,91,0.00,,,0.00,WUHU216HW,2013-02-05 08:00:00,
2013-02-05 00:05:00,44.8,42.4,29.66,SE,135,0.0,0.4,91,0.00,,,0.00,WUHU216HW,2013-02-05 08:05:00,
2013-02-05 00:10:00,44.6,42.2,29.66,SE,135,0.0,0.4,91,0.00,,,0.00,WUHU216HW,2013-02-05 08:10:00,
2013-02-05 00:15:00,44.6,42.5,29.66,SE,135,0.0,0.0,92,0.00,,,0.00,WUHU216HW,2013-02-05 08:15:00,
2013-02-05 00:20:00,44.5,42.0,29.67,SE,135,0.0,0.0,91,0.00,,,0.00,WUHU216HW,2013-02-05 08:20:00,
2013-02-05 00:25:00,44.5,42.0,29.66,SE,135,0.0,0.0,91,0.00,,,0.00,WUHU216HW,2013-02-05 08:25:00,
2013-02-05 00:30:00,44.5,42.0,29.66,SE,135,0.0,0.0,91,0.00,,,0.00,WUHU216HW,2013-02-05 08:30:00,
2013-02-05 00:35:00,44.5,42.0,29.66,SE,135,0.0,0.0,91,0.00,,,0.00,WUHU216HW,2013-02-05 08:35:00,
2013-02-05 00:40:00,44.6,42.2,29.66,SE,135,0.0,0.0,91,0.00,,,0.00,WUHU216HW,2013-02-05 08:40:00,
2013-02-05 00:45:00,44.6,42.2,29.66,SE,135,0.0,0.0,91,0.00,,,0.00,WUHU216HW,2013-02-05 08:45:00,
2013-02-05 00:50:00,44.8,42.4,29.66,SE,135,0.0,0.0,91,0.00,,,0.00,WUHU216HW,2013-02-05 08:50:00,
2013-02-05 00:55:00,45.0,42.6,29.66,SW,225,0.0,0.0,91,0.00,,,0.00,WUHU216HW,2013-02-05 08:55:00,
2013-02-05 01:00:00,45.2,42.8,29.66,SW,225,0.0,0.4,91,0.00,,,0.00,WUHU216HW,2013-02-05 09:00:00,
2013-02-05 01:05:00,45.4,43.2,29.66,WSW,248,0.0,0.4,92,0.00,,,0.00,WUHU216HW,2013-02-05 09:05:00,
2013-02-05 01:10:00,45.7,43.6,29.66,ESE,113,0.0,0.7,92,0.00,,,0.00,WUHU216HW,2013-02-05 09:10:00,
2013-02-05 01:15:00,45.9,44.0,29.66,NNW,338,0.7,1.1,93,0.00,,,0.00,WUHU216HW,2013-02-05 09:15:00,
2013-02-05 01:20:00,46.1,43.9,29.66,SSE,158,0.0,1.1,92,0.00,,,0.00,WUHU216HW,2013-02-05 09:20:00,
2013-02-05 01:23:00,46.3,44.1,29.66,East,90,0.0,1.1,92,0.00,,,0.00,WUHU216HW,2013-02-05 09:23:00,
2013-02-05 05:11:00,46.3,44.1,29.66,East,90,0.0,0.0,92,0.00,,,0.00,WUHU216HW,2013-02-05 13:11:00,
2013-02-05 05:12:00,46.3,44.1,29.66,East,90,0.0,0.0,92,0.00,,,0.00,WUHU216HW,2013-02-05 13:12:00,
2013-02-05 05:17:00,46.3,44.1,29.66,East,90,0.0,0.0,92,0.00,,,0.00,WUHU216HW,2013-02-05 13:17:00,
2013-02-05 06:00:00,46.4,44.0,29.62,SSE,158,0.4,0.4,91,0.04,,,0.00,WUHU216HW,2013-02-05 14:00:00,
2013-02-05 06:05:00,46.4,44.0,29.62,SSE,158,0.4,1.8,91,0.04,,,0.05,WUHU216HW,2013-02-05 14:05:00,
2013-02-05 06:10:00,46.3,43.8,29.62,SSW,203,0.7,1.8,91,0.04,,,0.06,WUHU216HW,2013-02-05 14:10:00,
2013-02-05 06:15:00,46.3,43.8,29.61,NNE,23,0.0,0.9,91,0.04,,,0.06,WUHU216HW,2013-02-05 14:15:00,
2013-02-05 06:20:00,46.3,44.1,29.62,SSE,158,0.0,0.9,92,0.04,,,0.06,WUHU216HW,2013-02-05 14:20:00,
2013-02-05 06:25:00,46.3,44.1,29.63,SW,225,0.4,0.4,92,0.03,,,0.06,WUHU216HW,2013-02-05 14:25:00,
2013-02-05 06:30:00,46.1,43.9,29.63,SSE,158,0.9,0.9,92,0.03,,,0.06,WUHU216HW,2013-02-05 14:30:00,
2013-02-05 06:35:00,46.3,44.1,29.62,SSE,158,0.4,0.9,92,0.02,,,0.06,WUHU216HW,2013-02-05 14:35:00,
2013-02-05 06:40:00,46.3,44.1,29.62,SW,225,0.4,1.3,92,0.01,,,0.06,WUHU216HW,2013-02-05 14:40:00,
2013-02-05 06:45:00,46.1,43.9,29.62,SSE,158,1.3,1.3,92,0.01,,,0.06,WUHU216HW,2013-02-05 14:45:00,
2013-02-05 06:50:00,46.1,43.9,29.63,SE,135,0.4,2.5,92,0.01,,,0.06,WUHU216HW,2013-02-05 14:50:00,
2013-02-05 06:55:00,46.1,43.9,29.63,NE,45,0.0,2.5,92,0.01,,,0.06,WUHU216HW,2013-02-05 14:55:00,
2013-02-05 07:00:00,46.1,43.9,29.62,South,180,0.4,1.8,92,0.01,,,0.06,WUHU216HW,2013-02-05 15:00:00,
2013-02-05 07:05:00,46.1,43.9,29.62,ESE,113,0.0,1.8,92,0.01,,,0.06,WUHU216HW,2013-02-05 15:05:00,
2013-02-05 07:10:00,46.1,44.2,29.62,SW,225,0.9,1.1,93,0.00,,,0.06,WUHU216HW,2013-02-05 15:10:00,
2013-02-05 07:15:00,46.1,44.2,29.62,South,180,0.0,1.8,93,0.00,,,0.06,WUHU216HW,2013-02-05 15:15:00,
2013-02-05 07:20:00,46.1,44.2,29.62,SSW,203,2.5,2.5,93,0.00,,,0.06,WUHU216HW,2013-02-05 15:20:00,
2013-02-05 07:25:00,46.1,44.2,29.62,SSE,158,0.0,2.5,93,0.00,,,0.06,WUHU216HW,2013-02-05 15:25:00,
2013-02-05 07:30:00,46.3,44.4,29.62,ESE,113,0.0,2.5,93,0.00,,,0.06,WUHU216HW,2013-02-05 15:30:00,
2013-02-05 07:35:00,46.4,44.6,29.62,SW,225,0.0,0.4,93,0.00,,,0.06,WUHU216HW,2013-02-05 15:35:00,
2013-02-05 07:40:00,46.3,44.4,29.62,South,180,1.1,1.8,93,0.00,,,0.06,WUHU216HW,2013-02-05 15:40:00,
2013-02-05 07:45:00,46.4,44.6,29.62,SW,225,0.0,1.8,93,0.00,,,0.06,WUHU216HW,2013-02-05 15:45:00,
2013-02-05 07:50:00,46.4,44.6,29.62,South,180,0.0,1.1,93,0.00,,,0.06,WUHU216HW,2013-02-05 15:50:00,
2013-02-05 07:55:00,46.4,44.6,29.63,South,180,0.4,0.7,93,0.00,,,0.06,WUHU216HW,2013-02-05 15:55:00,
2013-02-05 08:00:00,46.4,44.6,29.63,SW,225,1.1,1.6,93,0.00,,,0.06,WUHU216HW,2013-02-05 16:00:00,
2013-02-05 08:05:00,46.4,44.6,29.63,SW,225,0.0,1.6,93,0.00,,,0.06,WUHU216HW,2013-02-05 16:05:00,
2013-02-05 08:10:00,46.6,44.7,29.63,SSW,203,0.4,1.1,93,0.00,,,0.06,WUHU216HW,2013-02-05 16:10:00,
2013-02-05 08:15:00,46.6,44.7,29.64,SE,135,0.0,1.3,93,0.00,,,0.06,WUHU216HW,2013-02-05 16:15:00,
2013-02-05 08:20:00,46.6,44.7,29.63,SE,135,0.0,1.3,93,0.00,,,0.06,WUHU216HW,2013-02-05 16:20:00,
2013-02-05 08:25:00,46.6,44.7,29.63,SW,225,0.4,2.2,93,0.00,,,0.06,WUHU216HW,2013-02-05 16:25:00,
2013-02-05 08:30:00,46.4,44.6,29.63,West,270,0.9,2.9,93,0.00,,,0.06,WUHU216HW,2013-02-05 16:30:00,
2013-02-05 08:35:00,46.4,44.6,29.63,SW,225,0.9,2.9,93,0.00,,,0.06,WUHU216HW,2013-02-05 16:35:00,
2013-02-05 08:40:00,46.3,44.4,29.63,NW,315,2.0,2.0,93,0.00,,,0.06,WUHU216HW,2013-02-05 16:40:00,
2013-02-05 08:45:00,46.4,44.6,29.63,SW,225,0.7,2.0,93,0.00,,,0.06,WUHU216HW,2013-02-05 16:45:00,
2013-02-05 08:50:00,46.6,44.7,29.63,South,180,0.2,2.0,93,0.00,,,0.06,WUHU216HW,2013-02-05 16:50:00,
2013-02-05 08:55:00,46.8,44.9,29.63,SSE,158,0.2,1.8,93,0.00,,,0.06,WUHU216HW,2013-02-05 16:55:00,
2013-02-05 09:00:00,47.0,45.1,29.63,SSE,158,0.4,2.2,93,0.00,,,0.06,WUHU216HW,2013-02-05 17:00:00,
2013-02-05 09:05:00,47.2,45.3,29.64,SSE,158,2.2,2.7,93,0.00,,,0.06,WUHU216HW,2013-02-05 17:05:00,
2013-02-05 09:10:00,47.5,45.6,29.64,SW,225,0.9,2.7,93,0.00,,,0.06,WUHU216HW,2013-02-05 17:10:00,
2013-02-05 09:15:00,47.7,45.8,29.65,ESE,113,1.8,3.6,93,0.00,,,0.06,WUHU216HW,2013-02-05 17:15:00,
2013-02-05 09:20:00,47.9,45.7,29.65,SSW,203,0.7,3.6,92,0.00,,,0.06,WUHU216HW,2013-02-05 17:20:00,
2013-02-05 09:25:00,47.9,45.7,29.65,South,180,0.4,2.0,92,0.00,,,0.06,WUHU216HW,2013-02-05 17:25:00,
2013-02-05 09:30:00,48.2,46.1,29.65,SW,225,1.6,5.4,92,0.00,,,0.06,WUHU216HW,2013-02-05 17:30:00,
2013-02-05 09:35:00,48.4,46.3,29.65,SW,225,1.8,5.4,92,0.00,,,0.06,WUHU216HW,2013-02-05 17:35:00,
2013-02-05 09:40:00,48.6,46.5,29.65,East,90,0.0,4.0,92,0.00,,,0.06,WUHU216HW,2013-02-05 17:40:00,
2013-02-05 09:45:00,48.6,46.2,29.65,NNW,338,0.0,2.0,91,0.00,,,0.06,WUHU216HW,2013-02-05 17:45:00,
2013-02-05 09:50:00,48.6,46.2,29.66,West,270,0.7,1.1,91,0.01,,,0.07,WUHU216HW,2013-02-05 17:50:00,
2013-02-05 09:55:00,48.6,46.2,29.65,NNW,338,0.4,3.4,91,0.01,,,0.07,WUHU216HW,2013-02-05 17:55:00,
2013-02-05 10:00:00,48.6,46.2,29.65,SSW,203,0.9,3.4,91,0.01,,,0.07,WUHU216HW,2013-02-05 18:00:00,
2013-02-05 10:05:00,48.8,46.6,29.66,SW,225,0.9,2.0,92,0.01,,,0.07,WUHU216HW,2013-02-05 18:05:00,
2013-02-05 10:10:00,48.8,46.6,29.66,East,90,0.2,2.2,92,0.02,,,0.08,WUHU216HW,2013-02-05 18:10:00,
2013-02-05 10:15:00,49.0,46.7,29.66,SSE,158,1.6,2.2,92,0.02,,,0.08,WUHU216HW,2013-02-05 18:15:00,
2013-02-05 10:20:00,49.1,46.9,29.66,SSW,203,1.1,5.1,92,0.02,,,0.08,WUHU216HW,2013-02-05 18:20:00,
2013-02-05 10:25:00,49.1,46.9,29.65,SE,135,1.6,5.1,92,0.02,,,0.08,WUHU216HW,2013-02-05 18:25:00,
2013-02-05 10:30:00,49.3,47.1,29.65,WSW,248,2.5,3.4,92,0.02,,,0.08,WUHU216HW,2013-02-05 18:30:00,
2013-02-05 10:35:00,49.7,47.4,29.65,SW,225,4.0,4.0,92,0.02,,,0.08,WUHU216HW,2013-02-05 18:35:00,
2013-02-05 10:40:00,50.0,47.7,29.65,ESE,113,1.1,4.0,92,0.02,,,0.08,WUHU216HW,2013-02-05 18:40:00,
2013-02-05 10:45:00,50.4,47.8,29.65,WSW,248,6.3,6.3,91,0.02,,,0.08,WUHU216HW,2013-02-05 18:45:00,
2013-02-05 10:49:00,50.8,47.9,29.65,SE,135,2.9,6.3,90,0.01,,,0.08,WUHU216HW,2013-02-05 18:49:00,
2013-02-05 17:46:00,50.8,47.9,29.65,NNW,338,3.8,3.8,90,0.01,,,0.08,WUHU216HW,2013-02-06 01:46:00,
2013-02-05 17:47:00,50.8,47.9,29.65,NNW,338,3.8,3.8,90,0.01,,,0.08,WUHU216HW,2013-02-06 01:47:00,
2013-02-05 17:52:00,50.8,47.9,29.65,NNW,338,3.8,3.8,90,0.01,,,0.08,WUHU216HW,2013-02-06 01:52:00,
2013-02-05 18:00:00,47.7,44.4,29.68,South,180,0.4,0.4,88,0.03,,,0.08,WUHU216HW,2013-02-06 02:00:00,
2013-02-05 18:05:00,47.5,44.2,29.68,SW,225,0.0,0.4,88,0.01,,,0.21,WUHU216HW,2013-02-06 02:05:00,
2013-02-05 18:10:00,47.5,44.2,29.68,SW,225,0.2,0.4,88,0.01,,,0.21,WUHU216HW,2013-02-06 02:10:00,
2013-02-05 18:15:00,47.5,44.2,29.68,SW,225,0.4,1.8,88,0.01,,,0.21,WUHU216HW,2013-02-06 02:15:00,
2013-02-05 18:20:00,47.3,44.4,29.68,SW,225,2.7,2.7,89,0.01,,,0.21,WUHU216HW,2013-02-06 02:20:00,
2013-02-05 18:25:00,47.2,44.2,29.68,SSE,158,0.0,2.7,89,0.00,,,0.21,WUHU216HW,2013-02-06 02:25:00,
2013-02-05 18:30:00,47.2,44.2,29.68,WSW,248,2.5,2.7,89,0.00,,,0.21,WUHU216HW,2013-02-06 02:30:00,
2013-02-05 18:35:00,47.0,44.0,29.68,South,180,2.7,2.7,89,0.00,,,0.21,WUHU216HW,2013-02-06 02:35:00,
2013-02-05 18:40:00,46.8,43.8,29.68,SSW,203,1.3,4.3,89,0.00,,,0.21,WUHU216HW,2013-02-06 02:40:00,
2013-02-05 18:45:00,46.6,43.7,29.68,North,0,0.0,4.3,89,0.00,,,0.21,WUHU216HW,2013-02-06 02:45:00,
2013-02-05 18:50:00,46.4,43.5,29.69,SW,225,0.9,2.7,89,0.00,,,0.21,WUHU216HW,2013-02-06 02:50:00,
2013-02-05 18:55:00,46.4,43.5,29.69,NNW,338,0.0,1.8,89,0.00,,,0.21,WUHU216HW,2013-02-06 02:55:00,
2013-02-05 19:00:00,46.3,43.3,29.69,WNW,293,0.7,1.3,89,0.00,,,0.21,WUHU216HW,2013-02-06 03:00:00,
2013-02-05 19:05:00,46.1,43.1,29.69,WSW,248,0.0,1.1,89,0.00,,,0.21,WUHU216HW,2013-02-06 03:05:00,
2013-02-05 19:10:00,45.9,42.9,29.70,South,180,0.0,1.1,89,0.00,,,0.21,WUHU216HW,2013-02-06 03:10:00,
2013-02-05 19:15:00,45.7,42.8,29.70,NNW,338,0.0,1.1,89,0.00,,,0.21,WUHU216HW,2013-02-06 03:15:00,
2013-02-05 19:20:00,45.7,42.8,29.70,SW,225,1.1,1.1,89,0.00,,,0.21,WUHU216HW,2013-02-06 03:20:00,
2013-02-05 19:25:00,45.5,42.6,29.70,SSE,158,0.0,1.1,89,0.00,,,0.21,WUHU216HW,2013-02-06 03:25:00,
2013-02-05 19:30:00,45.4,42.4,29.71,East,90,0.0,1.1,89,0.00,,,0.21,WUHU216HW,2013-02-06 03:30:00,
2013-02-05 19:35:00,45.5,42.6,29.71,NNE,23,0.0,1.1,89,0.00,,,0.21,WUHU216HW,2013-02-06 03:35:00,
2013-02-05 19:40:00,45.5,42.8,29.71,NNE,23,0.0,0.2,90,0.00,,,0.21,WUHU216HW,2013-02-06 03:40:00,
2013-02-05 19:45:00,45.5,42.8,29.71,ENE,68,0.0,0.2,90,0.00,,,0.21,WUHU216HW,2013-02-06 03:45:00,
2013-02-05 19:50:00,45.4,42.7,29.71,ENE,68,0.0,0.2,90,0.00,,,0.21,WUHU216HW,2013-02-06 03:50:00,
2013-02-05 19:55:00,45.4,42.7,29.71,South,180,0.4,0.4,90,0.00,,,0.21,WUHU216HW,2013-02-06 03:55:00,
2013-02-05 20:00:00,45.4,42.7,29.71,WSW,248,0.2,1.1,90,0.00,,,0.21,WUHU216HW,2013-02-06 04:00:00,
2013-02-05 20:05:00,45.4,42.7,29.71,SSE,158,0.0,1.1,90,0.00,,,0.21,WUHU216HW,2013-02-06 04:05:00,
2013-02-05 20:10:00,45.5,42.8,29.71,SSW,203,0.7,1.3,90,0.00,,,0.21,WUHU216HW,2013-02-06 04:10:00,
2013-02-05 20:15:00,45.5,42.8,29.72,South,180,0.9,1.3,90,0.00,,,0.21,WUHU216HW,2013-02-06 04:15:00,
2013-02-05 20:20:00,45.5,43.1,29.72,ESE,113,0.2,1.1,91,0.00,,,0.21,WUHU216HW,2013-02-06 04:20:00,
2013-02-05 20:25:00,45.5,43.1,29.72,SSW,203,0.0,1.1,91,0.00,,,0.21,WUHU216HW,2013-02-06 04:25:00,
2013-02-05 20:30:00,45.4,42.7,29.72,WSW,248,0.0,0.4,90,0.00,,,0.21,WUHU216HW,2013-02-06 04:30:00,
2013-02-05 20:35:00,45.2,42.5,29.73,WSW,248,0.2,0.2,90,0.00,,,0.21,WUHU216HW,2013-02-06 04:35:00,
2013-02-05 20:40:00,45.0,42.6,29.73,SW,225,0.0,0.2,91,0.00,,,0.21,WUHU216HW,2013-02-06 04:40:00,
2013-02-05 20:45:00,45.0,42.6,29.73,SW,225,0.0,0.2,91,0.00,,,0.21,WUHU216HW,2013-02-06 04:45:00,
2013-02-05 20:50:00,44.8,42.4,29.73,SW,225,0.2,0.4,91,0.00,,,0.21,WUHU216HW,2013-02-06 04:50:00,
2013-02-05 20:55:00,44.8,42.4,29.73,SSE,158,0.4,0.4,91,0.00,,,0.21,WUHU216HW,2013-02-06 04:55:00,
2013-02-05 21:00:00,44.8,42.4,29.73,SSW,203,1.6,1.6,91,0.00,,,0.21,WUHU216HW,2013-02-06 05:00:00,
2013-02-05 21:05:00,45.0,42.6,29.73,South,180,0.4,1.6,91,0.00,,,0.21,WUHU216HW,2013-02-06 05:05:00,
2013-02-05 21:10:00,44.8,42.4,29.73,SW,225,0.4,1.6,91,0.00,,,0.21,WUHU216HW,2013-02-06 05:10:00,
2013-02-05 21:15:00,44.6,42.2,29.73,SW,225,0.0,0.7,91,0.00,,,0.21,WUHU216HW,2013-02-06 05:15:00,
2013-02-05 21:20:00,44.6,42.2,29.73,SW,225,0.0,0.4,91,0.00,,,0.21,WUHU216HW,2013-02-06 05:20:00,
2013-02-05 21:25:00,44.5,41.8,29.74,SW,225,0.0,0.0,90,0.00,,,0.21,WUHU216HW,2013-02-06 05:25:00,
2013-02-05 21:30:00,44.3,41.6,29.74,SSW,203,0.0,0.4,90,0.00,,,0.21,WUHU216HW,2013-02-06 05:30:00,
2013-02-05 21:35:00,44.3,41.6,29.74,SSW,203,0.0,0.9,90,0.00,,,0.21,WUHU216HW,2013-02-06 05:35:00,
2013-02-05 21:40:00,44.3,41.6,29.74,West,270,0.0,1.3,90,0.00,,,0.21,WUHU216HW,2013-02-06 05:40:00,
2013-02-05 21:45:00,44.3,41.9,29.74,SSW,203,0.0,1.3,91,0.00,,,0.21,WUHU216HW,2013-02-06 05:45:00,
2013-02-05 21:50:00,44.3,41.9,29.74,NE,45,0.0,0.9,91,0.00,,,0.21,WUHU216HW,2013-02-06 05:50:00,
2013-02-05 21:55:00,44.3,41.9,29.74,WSW,248,0.0,0.0,91,0.00,,,0.21,WUHU216HW,2013-02-06 05:55:00,
2013-02-05 22:00:00,44.5,42.0,29.75,NNE,23,0.0,0.2,91,0.00,,,0.21,WUHU216HW,2013-02-06 06:00:00,
2013-02-05 22:05:00,44.6,42.2,29.74,NE,45,0.0,0.2,91,0.00,,,0.21,WUHU216HW,2013-02-06 06:05:00,
2013-02-05 22:10:00,44.8,42.4,29.74,SSE,158,1.1,1.6,91,0.00,,,0.21,WUHU216HW,2013-02-06 06:10:00,
2013-02-05 22:15:00,45.2,43.0,29.74,South,180,0.0,3.4,92,0.00,,,0.21,WUHU216HW,2013-02-06 06:15:00,
2013-02-05 22:20:00,45.2,42.8,29.74,West,270,1.1,3.4,91,0.00,,,0.21,WUHU216HW,2013-02-06 06:20:00,
2013-02-05 22:25:00,45.4,42.9,29.74,SSE,158,0.0,2.0,91,0.00,,,0.21,WUHU216HW,2013-02-06 06:25:00,
2013-02-05 22:30:00,45.4,42.9,29.74,SW,225,0.0,1.6,91,0.00,,,0.21,WUHU216HW,2013-02-06 06:30:00,
2013-02-05 22:35:00,45.5,43.1,29.74,SW,225,1.1,1.8,91,0.00,,,0.21,WUHU216HW,2013-02-06 06:35:00,
2013-02-05 22:40:00,45.5,43.1,29.73,SSW,203,0.4,1.8,91,0.00,,,0.21,WUHU216HW,2013-02-06 06:40:00,
2013-02-05 22:45:00,45.4,42.9,29.74,South,180,1.3,3.6,91,0.00,,,0.21,WUHU216HW,2013-02-06 06:45:00,
2013-02-05 22:50:00,45.4,42.9,29.74,NE,45,0.2,3.8,91,0.00,,,0.21,WUHU216HW,2013-02-06 06:50:00,
2013-02-05 22:55:00,45.2,42.8,29.74,South,180,2.0,3.8,91,0.00,,,0.21,WUHU216HW,2013-02-06 06:55:00,
2013-02-05 22:59:00,45.2,42.8,29.74,WSW,248,2.5,3.4,91,0.00,,,0.21,WUHU216HW,2013-02-06 06:59:00,